This is the latest recevied weather packets stored in our database for station/object KS5S. If no packets are shown the sender has not sent any weather packets the latest 10 day(s).
| Time | Temp. | Humidity | Pressure | Rain* | Wind** | Luminosity | Snow |
|---|---|---|---|---|---|---|---|
| 1777649286 | 14.44° C | 91% | 1014.3 hPa | 0 mm | - | 111 W/m² | - |
| 1777648983 | 14.44° C | 91% | 1014.1 hPa | 0 mm | - | 112 W/m² | - |
| 1777648681 | 14.44° C | 90% | 1014 hPa | 0 mm | - | 94 W/m² | - |
| 1777648377 | 14.44° C | 90% | 1014.2 hPa | 0 mm | - | 101 W/m² | - |
| 1777648073 | 14.44° C | 90% | 1014.5 hPa | 0 mm | - | 158 W/m² | - |
| 1777647769 | 14.44° C | 91% | 1014.8 hPa | 0 mm | - | 86 W/m² | - |
| 1777647466 | 14.44° C | 91% | 1014.9 hPa | 0 mm | - | 54 W/m² | - |
| 1777647164 | 14.44° C | 92% | 1014.8 hPa | 0 mm | - | 57 W/m² | - |
| 1777646859 | 14.44° C | 92% | 1014.1 hPa | 0 mm | - | 71 W/m² | - |
| 1777646556 | 14.44° C | 92% | 1014.1 hPa | 0 mm | - | 47 W/m² | - |
| 1777646253 | 14.44° C | 93% | 1014 hPa | 0 mm | - | 49 W/m² | - |
| 1777645950 | 14.44° C | 93% | 1014.2 hPa | 0 mm | - | 79 W/m² | - |
| 1777645647 | 13.89° C | 94% | 1014.2 hPa | 0 mm | - | 91 W/m² | - |
| 1777645342 | 13.89° C | 94% | 1014.3 hPa | 0.51 mm | - | 60 W/m² | - |
| 1777645038 | 13.89° C | 94% | 1014.3 hPa | 0.51 mm | - | 51 W/m² | - |
| 1777644735 | 13.89° C | 93% | 1014.5 hPa | 0.51 mm | - | 41 W/m² | - |
| 1777644432 | 14.44° C | 92% | 1014.3 hPa | 0.51 mm | - | 39 W/m² | - |
| 1777644129 | 14.44° C | 92% | 1014.6 hPa | 0 mm | - | 34 W/m² | - |
| 1777643825 | 14.44° C | 92% | 1014.8 hPa | 0 mm | - | 30 W/m² | - |
| 1777643522 | 14.44° C | 91% | 1014.7 hPa | 0.51 mm | - | 26 W/m² | - |
| 1777643219 | 14.44° C | 92% | 1014.5 hPa | 0.51 mm | - | 24 W/m² | - |
| 1777642915 | 14.44° C | 92% | 1014.8 hPa | 0 mm | - | 23 W/m² | - |
| 1777642612 | 14.44° C | 92% | 1014.3 hPa | 0 mm | - | 26 W/m² | - |
| 1777642309 | 14.44° C | 92% | 1013.8 hPa | 0.51 mm | - | 26 W/m² | - |
| 1777642006 | 14.44° C | 92% | 1014 hPa | 0.51 mm | - | 19 W/m² | - |
* Rain latest hour (hover to see other rain measurements)
** Current wind speed in m/s (hover to see current wind gust speed)